<?xml version="1.0"?>
<gpx xmlns="http://www.topografix.com/GPX/1/1" xmlns:xsi="http://www.w3.org/2001/XMLSchema-instance" version="1.1" creator="GPX RubyGem 1.0.0 -- http://dougfales.github.io/gpx/" xsi:schemaLocation="http://www.topografix.com/GPX/1/1 http://www.topografix.com/GPX/1/1/gpx.xsd">
  <metadata>
    <name/>
    <time>2026-05-07T12:44:12+00:00</time>
    <bound minlat="90.0" minlon="180.0" maxlat="-90.0" maxlon="-180.0"/>
  </metadata>
  <trk>
    <name/>
    <trkseg>
      <trkpt lat="46.527464" lon="10.452184">
        <time>1970-01-01T00:00:00+00:00</time>
        <ele>2770.0</ele>
      </trkpt>
      <trkpt lat="46.527497" lon="10.452102">
        <time>1970-01-01T00:00:00+00:00</time>
        <ele>2770.0</ele>
      </trkpt>
      <trkpt lat="46.527546" lon="10.451986">
        <time>1970-01-01T00:00:00+00:00</time>
        <ele>2770.0</ele>
      </trkpt>
      <trkpt lat="46.527569" lon="10.451934">
        <time>1970-01-01T00:00:00+00:00</time>
        <ele>2770.0</ele>
      </trkpt>
      <trkpt lat="46.527587" lon="10.451899">
        <time>1970-01-01T00:00:00+00:00</time>
        <ele>2770.0</ele>
      </trkpt>
      <trkpt lat="46.527574" lon="10.451777">
        <time>1970-01-01T00:00:00+00:00</time>
        <ele>2771.0</ele>
      </trkpt>
      <trkpt lat="46.527705" lon="10.451357">
        <time>1970-01-01T00:00:00+00:00</time>
        <ele>2767.0</ele>
      </trkpt>
      <trkpt lat="46.527748" lon="10.451315">
        <time>1970-01-01T00:00:00+00:00</time>
        <ele>2766.0</ele>
      </trkpt>
      <trkpt lat="46.527676" lon="10.45115">
        <time>1970-01-01T00:00:00+00:00</time>
        <ele>2764.0</ele>
      </trkpt>
      <trkpt lat="46.527626" lon="10.451147">
        <time>1970-01-01T00:00:00+00:00</time>
        <ele>2765.0</ele>
      </trkpt>
      <trkpt lat="46.527528" lon="10.451394">
        <time>1970-01-01T00:00:00+00:00</time>
        <ele>2770.0</ele>
      </trkpt>
      <trkpt lat="46.527412" lon="10.451574">
        <time>1970-01-01T00:00:00+00:00</time>
        <ele>2774.0</ele>
      </trkpt>
      <trkpt lat="46.527283" lon="10.451709">
        <time>1970-01-01T00:00:00+00:00</time>
        <ele>2775.0</ele>
      </trkpt>
      <trkpt lat="46.527192" lon="10.451748">
        <time>1970-01-01T00:00:00+00:00</time>
        <ele>2776.0</ele>
      </trkpt>
      <trkpt lat="46.527143" lon="10.451745">
        <time>1970-01-01T00:00:00+00:00</time>
        <ele>2776.0</ele>
      </trkpt>
      <trkpt lat="46.527133" lon="10.451673">
        <time>1970-01-01T00:00:00+00:00</time>
        <ele>2778.0</ele>
      </trkpt>
      <trkpt lat="46.527274" lon="10.451373">
        <time>1970-01-01T00:00:00+00:00</time>
        <ele>2777.0</ele>
      </trkpt>
      <trkpt lat="46.527263" lon="10.451235">
        <time>1970-01-01T00:00:00+00:00</time>
        <ele>2777.0</ele>
      </trkpt>
      <trkpt lat="46.527213" lon="10.451149">
        <time>1970-01-01T00:00:00+00:00</time>
        <ele>2777.0</ele>
      </trkpt>
      <trkpt lat="46.527141" lon="10.45114">
        <time>1970-01-01T00:00:00+00:00</time>
        <ele>2779.0</ele>
      </trkpt>
      <trkpt lat="46.526982" lon="10.451184">
        <time>1970-01-01T00:00:00+00:00</time>
        <ele>2783.0</ele>
      </trkpt>
      <trkpt lat="46.526844" lon="10.451188">
        <time>1970-01-01T00:00:00+00:00</time>
        <ele>2787.0</ele>
      </trkpt>
      <trkpt lat="46.526285" lon="10.451133">
        <time>1970-01-01T00:00:00+00:00</time>
        <ele>2805.0</ele>
      </trkpt>
      <trkpt lat="46.526043" lon="10.450857">
        <time>1970-01-01T00:00:00+00:00</time>
        <ele>2818.0</ele>
      </trkpt>
      <trkpt lat="46.525259" lon="10.45065">
        <time>1970-01-01T00:00:00+00:00</time>
        <ele>2831.0</ele>
      </trkpt>
      <trkpt lat="46.52437" lon="10.450148">
        <time>1970-01-01T00:00:00+00:00</time>
        <ele>2850.0</ele>
      </trkpt>
      <trkpt lat="46.524167" lon="10.450083">
        <time>1970-01-01T00:00:00+00:00</time>
        <ele>2856.0</ele>
      </trkpt>
      <trkpt lat="46.523773" lon="10.450097">
        <time>1970-01-01T00:00:00+00:00</time>
        <ele>2866.0</ele>
      </trkpt>
      <trkpt lat="46.523622" lon="10.450064">
        <time>1970-01-01T00:00:00+00:00</time>
        <ele>2869.0</ele>
      </trkpt>
      <trkpt lat="46.523358" lon="10.449919">
        <time>1970-01-01T00:00:00+00:00</time>
        <ele>2874.0</ele>
      </trkpt>
      <trkpt lat="46.522859" lon="10.449547">
        <time>1970-01-01T00:00:00+00:00</time>
        <ele>2885.0</ele>
      </trkpt>
      <trkpt lat="46.522367" lon="10.449408">
        <time>1970-01-01T00:00:00+00:00</time>
        <ele>2891.0</ele>
      </trkpt>
      <trkpt lat="46.522175" lon="10.449278">
        <time>1970-01-01T00:00:00+00:00</time>
        <ele>2895.0</ele>
      </trkpt>
      <trkpt lat="46.521311" lon="10.448988">
        <time>1970-01-01T00:00:00+00:00</time>
        <ele>2907.0</ele>
      </trkpt>
      <trkpt lat="46.521264" lon="10.448872">
        <time>1970-01-01T00:00:00+00:00</time>
        <ele>2908.0</ele>
      </trkpt>
      <trkpt lat="46.521272" lon="10.44872">
        <time>1970-01-01T00:00:00+00:00</time>
        <ele>2909.0</ele>
      </trkpt>
      <trkpt lat="46.521399" lon="10.448568">
        <time>1970-01-01T00:00:00+00:00</time>
        <ele>2913.0</ele>
      </trkpt>
      <trkpt lat="46.521392" lon="10.44851">
        <time>1970-01-01T00:00:00+00:00</time>
        <ele>2913.0</ele>
      </trkpt>
      <trkpt lat="46.521314" lon="10.448304">
        <time>1970-01-01T00:00:00+00:00</time>
        <ele>2913.0</ele>
      </trkpt>
      <trkpt lat="46.521337" lon="10.447968">
        <time>1970-01-01T00:00:00+00:00</time>
        <ele>2919.0</ele>
      </trkpt>
      <trkpt lat="46.521412" lon="10.447778">
        <time>1970-01-01T00:00:00+00:00</time>
        <ele>2926.0</ele>
      </trkpt>
      <trkpt lat="46.52143" lon="10.447522">
        <time>1970-01-01T00:00:00+00:00</time>
        <ele>2930.0</ele>
      </trkpt>
      <trkpt lat="46.521461" lon="10.447326">
        <time>1970-01-01T00:00:00+00:00</time>
        <ele>2934.0</ele>
      </trkpt>
      <trkpt lat="46.521504" lon="10.447189">
        <time>1970-01-01T00:00:00+00:00</time>
        <ele>2939.0</ele>
      </trkpt>
      <trkpt lat="46.521804" lon="10.446868">
        <time>1970-01-01T00:00:00+00:00</time>
        <ele>2952.0</ele>
      </trkpt>
      <trkpt lat="46.521904" lon="10.446711">
        <time>1970-01-01T00:00:00+00:00</time>
        <ele>2956.0</ele>
      </trkpt>
      <trkpt lat="46.521942" lon="10.446541">
        <time>1970-01-01T00:00:00+00:00</time>
        <ele>2959.0</ele>
      </trkpt>
      <trkpt lat="46.521862" lon="10.446435">
        <time>1970-01-01T00:00:00+00:00</time>
        <ele>2958.0</ele>
      </trkpt>
      <trkpt lat="46.521894" lon="10.446285">
        <time>1970-01-01T00:00:00+00:00</time>
        <ele>2962.0</ele>
      </trkpt>
      <trkpt lat="46.521795" lon="10.445844">
        <time>1970-01-01T00:00:00+00:00</time>
        <ele>2968.0</ele>
      </trkpt>
      <trkpt lat="46.521638" lon="10.445492">
        <time>1970-01-01T00:00:00+00:00</time>
        <ele>2976.0</ele>
      </trkpt>
      <trkpt lat="46.521564" lon="10.445215">
        <time>1970-01-01T00:00:00+00:00</time>
        <ele>2981.0</ele>
      </trkpt>
      <trkpt lat="46.522007" lon="10.445102">
        <time>1970-01-01T00:00:00+00:00</time>
        <ele>2991.0</ele>
      </trkpt>
      <trkpt lat="46.522027" lon="10.444763">
        <time>1970-01-01T00:00:00+00:00</time>
        <ele>3001.0</ele>
      </trkpt>
      <trkpt lat="46.522021" lon="10.444592">
        <time>1970-01-01T00:00:00+00:00</time>
        <ele>3006.0</ele>
      </trkpt>
      <trkpt lat="46.521993" lon="10.44453">
        <time>1970-01-01T00:00:00+00:00</time>
        <ele>3007.0</ele>
      </trkpt>
      <trkpt lat="46.521959" lon="10.444333">
        <time>1970-01-01T00:00:00+00:00</time>
        <ele>3014.0</ele>
      </trkpt>
      <trkpt lat="46.522031" lon="10.444164">
        <time>1970-01-01T00:00:00+00:00</time>
        <ele>3024.0</ele>
      </trkpt>
      <trkpt lat="46.521982" lon="10.443862">
        <time>1970-01-01T00:00:00+00:00</time>
        <ele>3032.0</ele>
      </trkpt>
      <trkpt lat="46.521819" lon="10.443451">
        <time>1970-01-01T00:00:00+00:00</time>
        <ele>3038.0</ele>
      </trkpt>
      <trkpt lat="46.521829" lon="10.443305">
        <time>1970-01-01T00:00:00+00:00</time>
        <ele>3046.0</ele>
      </trkpt>
      <trkpt lat="46.521974" lon="10.443233">
        <time>1970-01-01T00:00:00+00:00</time>
        <ele>3056.0</ele>
      </trkpt>
      <trkpt lat="46.521919" lon="10.443118">
        <time>1970-01-01T00:00:00+00:00</time>
        <ele>3058.0</ele>
      </trkpt>
      <trkpt lat="46.522002" lon="10.443027">
        <time>1970-01-01T00:00:00+00:00</time>
        <ele>3064.0</ele>
      </trkpt>
      <trkpt lat="46.521949" lon="10.442973">
        <time>1970-01-01T00:00:00+00:00</time>
        <ele>3064.0</ele>
      </trkpt>
      <trkpt lat="46.521978" lon="10.442867">
        <time>1970-01-01T00:00:00+00:00</time>
        <ele>3069.0</ele>
      </trkpt>
      <trkpt lat="46.521866" lon="10.442745">
        <time>1970-01-01T00:00:00+00:00</time>
        <ele>3069.0</ele>
      </trkpt>
      <trkpt lat="46.521906" lon="10.442674">
        <time>1970-01-01T00:00:00+00:00</time>
        <ele>3073.0</ele>
      </trkpt>
      <trkpt lat="46.52191" lon="10.442581">
        <time>1970-01-01T00:00:00+00:00</time>
        <ele>3073.0</ele>
      </trkpt>
      <trkpt lat="46.521885" lon="10.442452">
        <time>1970-01-01T00:00:00+00:00</time>
        <ele>3073.0</ele>
      </trkpt>
      <trkpt lat="46.521885" lon="10.442452">
        <time>1970-01-01T00:00:00+00:00</time>
        <ele>3073.0</ele>
      </trkpt>
      <trkpt lat="46.52191" lon="10.442581">
        <time>1970-01-01T00:00:00+00:00</time>
        <ele>3073.0</ele>
      </trkpt>
      <trkpt lat="46.521906" lon="10.442674">
        <time>1970-01-01T00:00:00+00:00</time>
        <ele>3073.0</ele>
      </trkpt>
      <trkpt lat="46.521866" lon="10.442745">
        <time>1970-01-01T00:00:00+00:00</time>
        <ele>3069.0</ele>
      </trkpt>
      <trkpt lat="46.521978" lon="10.442867">
        <time>1970-01-01T00:00:00+00:00</time>
        <ele>3069.0</ele>
      </trkpt>
      <trkpt lat="46.521949" lon="10.442973">
        <time>1970-01-01T00:00:00+00:00</time>
        <ele>3064.0</ele>
      </trkpt>
      <trkpt lat="46.522002" lon="10.443027">
        <time>1970-01-01T00:00:00+00:00</time>
        <ele>3064.0</ele>
      </trkpt>
      <trkpt lat="46.521919" lon="10.443118">
        <time>1970-01-01T00:00:00+00:00</time>
        <ele>3058.0</ele>
      </trkpt>
      <trkpt lat="46.521974" lon="10.443233">
        <time>1970-01-01T00:00:00+00:00</time>
        <ele>3056.0</ele>
      </trkpt>
      <trkpt lat="46.521829" lon="10.443305">
        <time>1970-01-01T00:00:00+00:00</time>
        <ele>3046.0</ele>
      </trkpt>
      <trkpt lat="46.521819" lon="10.443451">
        <time>1970-01-01T00:00:00+00:00</time>
        <ele>3038.0</ele>
      </trkpt>
      <trkpt lat="46.521982" lon="10.443862">
        <time>1970-01-01T00:00:00+00:00</time>
        <ele>3032.0</ele>
      </trkpt>
      <trkpt lat="46.522031" lon="10.444164">
        <time>1970-01-01T00:00:00+00:00</time>
        <ele>3024.0</ele>
      </trkpt>
      <trkpt lat="46.521959" lon="10.444333">
        <time>1970-01-01T00:00:00+00:00</time>
        <ele>3014.0</ele>
      </trkpt>
      <trkpt lat="46.521993" lon="10.44453">
        <time>1970-01-01T00:00:00+00:00</time>
        <ele>3007.0</ele>
      </trkpt>
      <trkpt lat="46.522021" lon="10.444592">
        <time>1970-01-01T00:00:00+00:00</time>
        <ele>3006.0</ele>
      </trkpt>
      <trkpt lat="46.522027" lon="10.444763">
        <time>1970-01-01T00:00:00+00:00</time>
        <ele>3001.0</ele>
      </trkpt>
      <trkpt lat="46.522007" lon="10.445102">
        <time>1970-01-01T00:00:00+00:00</time>
        <ele>2991.0</ele>
      </trkpt>
      <trkpt lat="46.521564" lon="10.445215">
        <time>1970-01-01T00:00:00+00:00</time>
        <ele>2981.0</ele>
      </trkpt>
      <trkpt lat="46.521638" lon="10.445492">
        <time>1970-01-01T00:00:00+00:00</time>
        <ele>2976.0</ele>
      </trkpt>
      <trkpt lat="46.521795" lon="10.445844">
        <time>1970-01-01T00:00:00+00:00</time>
        <ele>2968.0</ele>
      </trkpt>
      <trkpt lat="46.521894" lon="10.446285">
        <time>1970-01-01T00:00:00+00:00</time>
        <ele>2962.0</ele>
      </trkpt>
      <trkpt lat="46.521862" lon="10.446435">
        <time>1970-01-01T00:00:00+00:00</time>
        <ele>2958.0</ele>
      </trkpt>
      <trkpt lat="46.521942" lon="10.446541">
        <time>1970-01-01T00:00:00+00:00</time>
        <ele>2959.0</ele>
      </trkpt>
      <trkpt lat="46.521904" lon="10.446711">
        <time>1970-01-01T00:00:00+00:00</time>
        <ele>2956.0</ele>
      </trkpt>
      <trkpt lat="46.521804" lon="10.446868">
        <time>1970-01-01T00:00:00+00:00</time>
        <ele>2952.0</ele>
      </trkpt>
      <trkpt lat="46.521504" lon="10.447189">
        <time>1970-01-01T00:00:00+00:00</time>
        <ele>2939.0</ele>
      </trkpt>
      <trkpt lat="46.521461" lon="10.447326">
        <time>1970-01-01T00:00:00+00:00</time>
        <ele>2934.0</ele>
      </trkpt>
      <trkpt lat="46.52143" lon="10.447522">
        <time>1970-01-01T00:00:00+00:00</time>
        <ele>2930.0</ele>
      </trkpt>
      <trkpt lat="46.521412" lon="10.447778">
        <time>1970-01-01T00:00:00+00:00</time>
        <ele>2926.0</ele>
      </trkpt>
      <trkpt lat="46.521337" lon="10.447968">
        <time>1970-01-01T00:00:00+00:00</time>
        <ele>2919.0</ele>
      </trkpt>
      <trkpt lat="46.521314" lon="10.448304">
        <time>1970-01-01T00:00:00+00:00</time>
        <ele>2913.0</ele>
      </trkpt>
      <trkpt lat="46.521392" lon="10.44851">
        <time>1970-01-01T00:00:00+00:00</time>
        <ele>2913.0</ele>
      </trkpt>
      <trkpt lat="46.521399" lon="10.448568">
        <time>1970-01-01T00:00:00+00:00</time>
        <ele>2913.0</ele>
      </trkpt>
      <trkpt lat="46.521272" lon="10.44872">
        <time>1970-01-01T00:00:00+00:00</time>
        <ele>2909.0</ele>
      </trkpt>
      <trkpt lat="46.521264" lon="10.448872">
        <time>1970-01-01T00:00:00+00:00</time>
        <ele>2908.0</ele>
      </trkpt>
      <trkpt lat="46.521311" lon="10.448988">
        <time>1970-01-01T00:00:00+00:00</time>
        <ele>2907.0</ele>
      </trkpt>
      <trkpt lat="46.522175" lon="10.449278">
        <time>1970-01-01T00:00:00+00:00</time>
        <ele>2895.0</ele>
      </trkpt>
      <trkpt lat="46.522367" lon="10.449408">
        <time>1970-01-01T00:00:00+00:00</time>
        <ele>2891.0</ele>
      </trkpt>
      <trkpt lat="46.522859" lon="10.449547">
        <time>1970-01-01T00:00:00+00:00</time>
        <ele>2885.0</ele>
      </trkpt>
      <trkpt lat="46.523358" lon="10.449919">
        <time>1970-01-01T00:00:00+00:00</time>
        <ele>2874.0</ele>
      </trkpt>
      <trkpt lat="46.523622" lon="10.450064">
        <time>1970-01-01T00:00:00+00:00</time>
        <ele>2869.0</ele>
      </trkpt>
      <trkpt lat="46.523773" lon="10.450097">
        <time>1970-01-01T00:00:00+00:00</time>
        <ele>2866.0</ele>
      </trkpt>
      <trkpt lat="46.524167" lon="10.450083">
        <time>1970-01-01T00:00:00+00:00</time>
        <ele>2856.0</ele>
      </trkpt>
      <trkpt lat="46.52437" lon="10.450148">
        <time>1970-01-01T00:00:00+00:00</time>
        <ele>2850.0</ele>
      </trkpt>
      <trkpt lat="46.525259" lon="10.45065">
        <time>1970-01-01T00:00:00+00:00</time>
        <ele>2831.0</ele>
      </trkpt>
      <trkpt lat="46.526043" lon="10.450857">
        <time>1970-01-01T00:00:00+00:00</time>
        <ele>2818.0</ele>
      </trkpt>
      <trkpt lat="46.526285" lon="10.451133">
        <time>1970-01-01T00:00:00+00:00</time>
        <ele>2805.0</ele>
      </trkpt>
      <trkpt lat="46.526844" lon="10.451188">
        <time>1970-01-01T00:00:00+00:00</time>
        <ele>2787.0</ele>
      </trkpt>
      <trkpt lat="46.526982" lon="10.451184">
        <time>1970-01-01T00:00:00+00:00</time>
        <ele>2783.0</ele>
      </trkpt>
      <trkpt lat="46.527141" lon="10.45114">
        <time>1970-01-01T00:00:00+00:00</time>
        <ele>2779.0</ele>
      </trkpt>
      <trkpt lat="46.527213" lon="10.451149">
        <time>1970-01-01T00:00:00+00:00</time>
        <ele>2777.0</ele>
      </trkpt>
      <trkpt lat="46.527263" lon="10.451235">
        <time>1970-01-01T00:00:00+00:00</time>
        <ele>2777.0</ele>
      </trkpt>
      <trkpt lat="46.527274" lon="10.451373">
        <time>1970-01-01T00:00:00+00:00</time>
        <ele>2777.0</ele>
      </trkpt>
      <trkpt lat="46.527133" lon="10.451673">
        <time>1970-01-01T00:00:00+00:00</time>
        <ele>2778.0</ele>
      </trkpt>
      <trkpt lat="46.527143" lon="10.451745">
        <time>1970-01-01T00:00:00+00:00</time>
        <ele>2776.0</ele>
      </trkpt>
      <trkpt lat="46.527192" lon="10.451748">
        <time>1970-01-01T00:00:00+00:00</time>
        <ele>2776.0</ele>
      </trkpt>
      <trkpt lat="46.527283" lon="10.451709">
        <time>1970-01-01T00:00:00+00:00</time>
        <ele>2775.0</ele>
      </trkpt>
      <trkpt lat="46.527412" lon="10.451574">
        <time>1970-01-01T00:00:00+00:00</time>
        <ele>2774.0</ele>
      </trkpt>
      <trkpt lat="46.527528" lon="10.451394">
        <time>1970-01-01T00:00:00+00:00</time>
        <ele>2770.0</ele>
      </trkpt>
      <trkpt lat="46.527626" lon="10.451147">
        <time>1970-01-01T00:00:00+00:00</time>
        <ele>2765.0</ele>
      </trkpt>
      <trkpt lat="46.527676" lon="10.45115">
        <time>1970-01-01T00:00:00+00:00</time>
        <ele>2764.0</ele>
      </trkpt>
      <trkpt lat="46.527748" lon="10.451315">
        <time>1970-01-01T00:00:00+00:00</time>
        <ele>2766.0</ele>
      </trkpt>
      <trkpt lat="46.527705" lon="10.451357">
        <time>1970-01-01T00:00:00+00:00</time>
        <ele>2767.0</ele>
      </trkpt>
      <trkpt lat="46.527574" lon="10.451777">
        <time>1970-01-01T00:00:00+00:00</time>
        <ele>2771.0</ele>
      </trkpt>
      <trkpt lat="46.527587" lon="10.451899">
        <time>1970-01-01T00:00:00+00:00</time>
        <ele>2770.0</ele>
      </trkpt>
      <trkpt lat="46.527569" lon="10.451934">
        <time>1970-01-01T00:00:00+00:00</time>
        <ele>2770.0</ele>
      </trkpt>
      <trkpt lat="46.527546" lon="10.451986">
        <time>1970-01-01T00:00:00+00:00</time>
        <ele>2770.0</ele>
      </trkpt>
      <trkpt lat="46.527497" lon="10.452102">
        <time>1970-01-01T00:00:00+00:00</time>
        <ele>2770.0</ele>
      </trkpt>
      <trkpt lat="46.527464" lon="10.452184">
        <time>1970-01-01T00:00:00+00:00</time>
        <ele>2770.0</ele>
      </trkpt>
    </trkseg>
  </trk>
</gpx>
